Weather past 2 weeks in Bantam, Cocos Islands

Now
81 °F

Passing clouds.


Feels Like: 85 °F
Forecast: 80 / 85 °F
Wind: 14 mph from Southeast

Location: Cocos Island Airport

Current Time: Dec 21, 2014 at 9:26:01 PM

Latest Report: Dec 21, 2014 at 8:30 PM


Visibility: N/A

Pressure: 29.80 "Hg

Humidity: 79%

Dew point: 73 °F

Location of BantamLocation

Historic Weather in Bantam — Graph

°F

Bantam temperature yesterday

Maximum temperature yesterday: 84 °F (at 9:30 AM)
Minimum temperature yesterday: 77 °F (at 10:30 PM)
Average temperature yesterday: 80 °F

Past Weeks' High & Low Weather Summary

 TemperatureHumidityPressure
High86 °F (Dec 7, 11:30 AM)94% (Dec 7, 1:25 AM)29.92 "Hg (Dec 7, 1:25 AM)
Low77 °F (Dec 12, 6:00 AM)58% (Dec 14, 11:30 AM)29.74 "Hg (Dec 7, 3:00 PM)
Average81 °F77%29.84 "Hg
* Reported Dec 6 7:30 PM — Dec 21 8:00 PM, Bantam, Weather by CustomWeather, © 2014

Note: Actual official high and low records may vary slightly from our data, if they occured in-between our weather recording intervals... More about our weather records

Advertising

Bantam weather history for previous 24 hours

 ConditionsComfort  
Time TempWeatherWind HumidityBarometerVisibility
8:00 PM
Dec 21
81 °FPassing clouds.15 mph79%29.80 "HgN/A
7:30 PM79 °FPassing clouds.10 mph84%29.80 "HgN/A
7:00 PM79 °FBroken clouds.13 mph84%29.77 "HgN/A
6:30 PM79 °FSunny.13 mph84%29.77 "HgN/A
5:30 PM81 °FWarm.14 mph79%29.74 "HgN/A
5:00 PM81 °FScattered clouds.15 mph79%29.74 "HgN/A
4:30 PM82 °FOvercast.14 mph74%29.74 "HgN/A
4:00 PM82 °FOvercast.15 mph70%29.74 "HgN/A
3:30 PM84 °FPartly sunny.14 mph70%29.74 "HgN/A
3:00 PM84 °FPartly sunny.14 mph66%29.74 "HgN/A
2:30 PM84 °FPartly sunny.16 mph66%29.77 "HgN/A
2:00 PM82 °FBroken clouds.16 mph70%29.77 "HgN/A
1:30 PM84 °FBroken clouds.16 mph70%29.77 "HgN/A
1:00 PM84 °FPartly sunny.17 mph70%29.80 "HgN/A
12:30 PM84 °FPartly sunny.17 mph70%29.80 "HgN/A
12:00 PM84 °FPartly sunny.18 mph70%29.80 "HgN/A
11:30 AM84 °FPartly sunny.18 mph66%29.80 "HgN/A
11:00 AM84 °FScattered clouds.17 mph62%29.83 "HgN/A
10:30 AM84 °FPartly sunny.17 mph66%29.83 "HgN/A
10:00 AM82 °FPartly sunny.17 mph66%29.83 "HgN/A
9:30 AM82 °FPartly sunny.18 mph70%29.83 "HgN/A
9:00 AM82 °FScattered clouds.20 mph70%29.83 "HgN/A
8:30 AM82 °FScattered clouds.20 mph70%29.83 "HgN/A
7:30 AM81 °FPassing clouds.20 mph74%29.83 "HgN/A
6:30 AM79 °FPassing clouds.20 mph79%29.80 "HgN/A
6:00 AM79 °FPassing clouds.18 mph79%29.80 "HgN/A
5:30 AM79 °FPassing clouds.17 mph79%29.77 "HgN/A
5:00 AM79 °FPassing clouds.17 mph79%29.77 "HgN/A
4:30 AM79 °FClear.17 mph74%29.77 "HgN/A
4:00 AM77 °FClear.17 mph83%29.77 "HgN/A
3:30 AM79 °FPartly cloudy.17 mph79%29.77 "HgN/A
3:00 AM77 °FSprinkles. Partly cloudy.17 mph89%29.80 "HgN/A
2:30 AM79 °FPartly cloudy.17 mph84%29.80 "HgN/A
2:00 AM79 °FMostly cloudy.15 mph79%29.80 "HgN/A
1:30 AM79 °FOvercast.14 mph79%29.83 "HgN/A
1:00 AM77 °FOvercast.14 mph83%29.83 "HgN/A
12:30 AM77 °FWarm.16 mph83%29.86 "HgN/A
11:30 PM
Dec 20
79 °FOvercast.17 mph74%29.86 "HgN/A
11:00 PM77 °FOvercast.15 mph83%29.86 "Hg4 mi
10:30 PM77 °FSprinkles. Overcast.15 mph83%29.86 "Hg6 mi
10:00 PM79 °FMostly cloudy.17 mph79%29.86 "HgN/A
9:30 PM79 °FMostly cloudy.18 mph79%29.86 "HgN/A
9:00 PM79 °FMostly cloudy.20 mph79%29.83 "HgN/A
Weather by CustomWeather, © 2014

See weather overviewHow to use our weather pages